Retour au catalogue

DAMPE

ActifScienceSSO
NORAD 41173·PAYLOAD·🇨🇳 China

Lancé Dec 17, 2015 depuis Jiuquan Satellite Launch Center

Loading…

Prochains Passages (prochaines 24 heures)

TLE

FraisSource: Space-Track

Époque: Sep 14, 2026, 14:03 UTC

1 41173U 15078A   26257.58600486  .00001083  00000-0  38723-4 0  9995
2 41173  97.4592 263.5231 0013408 114.3122 245.9521 15.30976632598222

Suivez DAMPE en temps réel avec AllMySat

Download on the App Store